Date,TemperatureHighF,TemperatureAvgF,TemperatureLowF,DewpointHighF,DewpointAvgF,DewpointLowF,HumidityHigh,HumidityAvg,HumidityLow,PressureMaxIn,PressureMinIn,WindSpeedMaxMPH,WindSpeedAvgMPH,GustSpeedMaxMPH,PrecipitationSumIn
2014-1-1,81.7,47.4,42.8,39.2,-4.6,-99.9,67,22,11,30.15,30.03,4,-254,55,26.75
2014-1-2,87.3,62.2,51.3,39.4,26.7,-99.9,52,30,11,30.13,29.97,6,-20,10,0.00
2014-1-3,79.9,55.7,48.0,52.3,29.8,-99.9,86,50,15,30.07,29.90,8,-70,12,0.00
2014-1-4,75.4,56.4,44.8,47.9,41.1,20.7,97,63,14,30.08,29.92,8,1,9,0.00
2014-1-5,81.0,60.5,45.9,39.8,25.2,-99.9,75,32,11,30.21,30.06,4,-8,8,0.00
2014-1-6,83.3,48.4,47.7,30.8,-4.0,-99.9,34,17,11,30.25,30.10,37,-187,37,0.00
2014-1-7,70.9,43.0,45.5,36.9,-4.2,-99.9,65,24,12,30.17,30.06,3,-220,6,0.00
2014-1-8,71.2,36.0,43.5,48.6,-5.2,-99.9,99,42,17,30.14,30.00,69,-302,69,0.00
2014-1-9,54.0,23.1,43.0,51.4,-28.8,-99.9,99,45,84,30.11,30.05,2,-508,12,0.00
2014-1-10,76.8,18.0,43.2,48.3,-50.8,-99.9,99,27,29,30.15,30.02,5,-658,8,0.00
2014-1-11,78.4,12.2,48.6,47.5,-71.4,-99.9,87,11,22,30.17,30.04,4,-799,5,0.00
2014-1-12,68.7,44.7,42.8,49.2,13.5,-99.9,89,50,1,30.20,30.06,7,-204,55,605.14
2014-1-13,59.7,22.3,44.1,34.6,-44.5,-99.9,63,18,21,30.37,30.20,4,-560,102,0.00
2014-1-14,75.2,24.1,47.8,28.8,-44.4,-99.9,42,14,14,30.32,30.23,4,-547,6,7.76
2014-1-15,91.0,65.3,48.6,34.0,25.9,16.6,45,25,11,30.29,30.11,5,1,8,0.00
2014-1-16,88.5,65.5,48.7,31.4,23.4,14.6,39,22,11,30.17,30.03,5,1,7,0.00
2014-1-17,91.4,61.8,51.3,37.2,12.5,-99.9,31,17,11,30.16,30.01,6,-73,8,0.00
2014-1-18,87.4,65.2,50.2,31.6,21.6,-99.9,40,20,11,30.11,29.98,5,-7,8,96.32
2014-1-19,84.9,62.9,51.4,31.2,20.2,-99.9,40,21,11,30.16,30.03,5,-12,8,0.00
2014-1-20,88.9,62.4,48.4,35.9,21.6,-99.9,47,24,11,30.23,30.05,5,-24,8,0.00
2014-1-21,83.5,65.4,51.1,32.6,23.8,14.6,43,22,11,30.22,30.06,7,1,11,0.00
2014-1-22,82.8,61.0,49.3,48.4,22.3,-99.9,84,31,11,30.10,29.88,7,-53,11,392.65
2014-1-23,77.7,52.8,45.3,48.2,23.7,-99.9,91,45,11,30.15,29.90,6,-93,10,0.00
2014-1-24,72.9,61.6,50.0,47.4,24.7,-99.9,90,29,12,30.25,30.13,8,-24,13,0.00
2014-1-25,81.7,44.6,50.5,43.6,-9.6,-99.9,72,23,11,30.25,30.11,5,-316,10,0.00
2014-1-26,74.1,54.2,48.4,49.2,32.5,-99.9,83,55,25,30.20,30.04,8,-71,97,48.38
2014-1-27,75.6,54.7,46.8,54.9,38.9,-99.9,99,69,38,30.13,30.00,5,-67,8,1.30
2014-1-28,78.6,59.5,45.5,53.7,48.8,39.8,99,72,25,30.16,30.02,7,1,11,1.30
2014-1-29,83.1,61.3,47.5,53.5,44.7,-99.9,98,63,21,30.14,29.93,5,-8,10,0.00
2014-1-30,60.4,55.5,51.3,55.7,52.2,-99.9,99,90,74,30.01,29.90,5,-3,8,0.04
2014-1-31,63.1,53.5,44.6,52.9,48.2,-99.9,99,84,58,30.01,29.91,7,-3,10,0.02